Location: Bednik
(45.3500°N, 16.3833°E)
Time: 15:47:31
(UTC+00:00)

Cosmos 1980 Rocket - Pass Details

Date: 08 August 2020
Orbit: 829 x 850 km, 71.0° (Epoch: 18 September)

Event Time Altitude Azimuth Distance (km) Brightness Sun altitude
Rises 18:52:59 0° 340° (NNW) 3,422 6.3 -7.2°
Reaches altitude 10° 18:55:53 10° 353° (N) 2,480 5.2 -7.7°
Maximum altitude 19:00:35 26° 49° (NE) 1,620 3.5 -8.4°
Drops below altitude 10° 19:05:14 10° 105° (ESE) 2,459 4.0 -9.0°
Enters shadow 19:05:19 10° 105° (ESE) 2,485 4.0 -9.1°
